Year,Month,Day,Hour,Minute,Value (Times are PST for windgust in km/hr)
2012,04,17,00,00,14.50
2012,04,17,00,01,9.60
2012,04,17,00,02,6.40
2012,04,17,00,03,11.30
2012,04,17,00,04,11.30
2012,04,17,00,05,16.10
2012,04,17,00,06,11.30
2012,04,17,00,07,11.30
2012,04,17,00,08,11.30
2012,04,17,00,09,14.50
2012,04,17,00,10,16.10
2012,04,17,00,11,14.50
2012,04,17,00,12,9.60
2012,04,17,00,13,11.30
2012,04,17,00,14,14.50
2012,04,17,00,15,19.30
2012,04,17,00,16,17.70
2012,04,17,00,17,19.30
2012,04,17,00,18,14.50
2012,04,17,00,19,9.60
2012,04,17,00,20,14.50
2012,04,17,00,21,14.50
2012,04,17,00,22,9.60
2012,04,17,00,23,8.10
2012,04,17,00,24,9.60
2012,04,17,00,25,8.10
2012,04,17,00,26,9.60
2012,04,17,00,27,9.60
2012,04,17,00,28,9.60
2012,04,17,00,29,11.30
2012,04,17,00,30,6.40
2012,04,17,00,31,9.60
2012,04,17,00,32,11.30
2012,04,17,00,33,11.30
2012,04,17,00,34,16.10
2012,04,17,00,35,12.90
2012,04,17,00,36,19.30
2012,04,17,00,37,16.10
2012,04,17,00,38,11.30
2012,04,17,00,39,11.30
2012,04,17,00,40,14.50
2012,04,17,00,41,17.70
2012,04,17,00,42,19.30
2012,04,17,00,43,16.10
2012,04,17,00,44,19.30
2012,04,17,00,45,19.30
2012,04,17,00,46,9.60
2012,04,17,00,47,9.60
2012,04,17,00,48,9.60
2012,04,17,00,49,16.10
2012,04,17,00,50,20.90
2012,04,17,00,51,12.90
2012,04,17,00,52,14.50
2012,04,17,00,53,14.50
2012,04,17,00,54,19.30
2012,04,17,00,55,19.30
2012,04,17,00,56,17.70
2012,04,17,00,57,16.10
2012,04,17,00,58,16.10
2012,04,17,00,59,9.60
2012,04,17,01,00,11.30
2012,04,17,01,01,17.70
2012,04,17,01,02,19.30
2012,04,17,01,03,14.50
2012,04,17,01,04,11.30
2012,04,17,01,05,14.50
2012,04,17,01,06,14.50
2012,04,17,01,07,14.50
2012,04,17,01,08,24.20
2012,04,17,01,09,20.90
2012,04,17,01,10,24.20
2012,04,17,01,11,20.90
2012,04,17,01,12,24.20
2012,04,17,01,13,16.10
2012,04,17,01,14,11.30
2012,04,17,01,15,8.10
2012,04,17,01,16,16.10
2012,04,17,01,17,16.10
2012,04,17,01,18,16.10
2012,04,17,01,19,17.70
2012,04,17,01,20,16.10
2012,04,17,01,21,17.70
2012,04,17,01,22,8.10
2012,04,17,01,23,19.30
2012,04,17,01,24,16.10
2012,04,17,01,25,14.50
2012,04,17,01,26,11.30
2012,04,17,01,27,11.30
2012,04,17,01,28,11.30
2012,04,17,01,29,9.60
2012,04,17,01,30,14.50
2012,04,17,01,31,16.10
2012,04,17,01,32,9.60
2012,04,17,01,33,16.10
2012,04,17,01,34,16.10
2012,04,17,01,35,8.10
2012,04,17,01,36,8.10
2012,04,17,01,37,9.60
2012,04,17,01,38,8.10
2012,04,17,01,39,8.10
2012,04,17,01,40,11.30
2012,04,17,01,41,6.40
2012,04,17,01,42,9.60
2012,04,17,01,43,14.50
2012,04,17,01,44,14.50
2012,04,17,01,45,12.90
2012,04,17,01,46,9.60
2012,04,17,01,47,11.30
2012,04,17,01,48,9.60
2012,04,17,01,49,11.30
2012,04,17,01,50,8.10
2012,04,17,01,51,8.10
2012,04,17,01,52,17.70
2012,04,17,01,53,11.30
2012,04,17,01,54,9.60
2012,04,17,01,55,9.60
2012,04,17,01,56,12.90
2012,04,17,01,57,17.70
2012,04,17,01,58,19.30
2012,04,17,01,59,11.30
2012,04,17,02,00,19.30
2012,04,17,02,01,17.70
2012,04,17,02,02,16.10
2012,04,17,02,03,11.30
2012,04,17,02,04,16.10
2012,04,17,02,05,17.70
2012,04,17,02,06,19.30
2012,04,17,02,07,14.50
2012,04,17,02,08,14.50
2012,04,17,02,09,11.30
2012,04,17,02,10,11.30
2012,04,17,02,11,14.50
2012,04,17,02,12,17.70
2012,04,17,02,13,11.30
2012,04,17,02,14,8.10
2012,04,17,02,15,9.60
2012,04,17,02,16,14.50
2012,04,17,02,17,11.30
2012,04,17,02,18,19.30
2012,04,17,02,19,11.30
2012,04,17,02,20,16.10
2012,04,17,02,21,9.60
2012,04,17,02,22,16.10
2012,04,17,02,23,14.50
2012,04,17,02,24,16.10
2012,04,17,02,25,12.90
2012,04,17,02,26,11.30
2012,04,17,02,27,6.40
2012,04,17,02,28,9.60
2012,04,17,02,29,8.10
2012,04,17,02,30,6.40
2012,04,17,02,31,4.80
2012,04,17,02,32,4.80
2012,04,17,02,33,8.10
2012,04,17,02,34,8.10
2012,04,17,02,35,8.10
2012,04,17,02,36,6.40
2012,04,17,02,37,8.10
2012,04,17,02,38,6.40
2012,04,17,02,39,9.60
2012,04,17,02,40,6.40
2012,04,17,02,41,8.10
2012,04,17,02,42,8.10
2012,04,17,02,43,9.60
2012,04,17,02,44,17.70
2012,04,17,02,45,9.60
2012,04,17,02,46,6.40
2012,04,17,02,47,8.10
2012,04,17,02,48,11.30
2012,04,17,02,49,9.60
2012,04,17,02,50,9.60
2012,04,17,02,51,8.10
2012,04,17,02,52,8.10
2012,04,17,02,53,8.10
2012,04,17,02,54,6.40
2012,04,17,02,55,9.60
2012,04,17,02,56,11.30
2012,04,17,02,57,17.70
2012,04,17,02,58,22.50
2012,04,17,02,59,19.30
2012,04,17,03,00,16.10
2012,04,17,03,01,6.40
2012,04,17,03,02,8.10
2012,04,17,03,06,16.10
2012,04,17,03,07,12.90
2012,04,17,03,08,17.70
2012,04,17,03,09,11.30
2012,04,17,03,10,17.70
2012,04,17,03,11,14.50
2012,04,17,03,12,12.90
2012,04,17,03,13,16.10
2012,04,17,03,14,9.60
2012,04,17,03,15,9.60
2012,04,17,03,16,9.60
2012,04,17,03,17,14.50
2012,04,17,03,18,17.70
2012,04,17,03,19,20.90
2012,04,17,03,20,17.70
2012,04,17,03,21,12.90
2012,04,17,03,22,16.10
2012,04,17,03,23,11.30
2012,04,17,03,24,17.70
2012,04,17,03,25,11.30
2012,04,17,03,26,8.10
2012,04,17,03,27,9.60
2012,04,17,03,28,8.10
2012,04,17,03,29,8.10
2012,04,17,03,30,8.10
2012,04,17,03,31,8.10
2012,04,17,03,32,4.80
2012,04,17,03,33,14.50
2012,04,17,03,34,14.50
2012,04,17,03,35,6.40
2012,04,17,03,36,9.60
2012,04,17,03,37,8.10
2012,04,17,03,38,6.40
2012,04,17,03,39,11.30
2012,04,17,03,40,12.90
2012,04,17,03,41,14.50
2012,04,17,03,42,8.10
2012,04,17,03,43,3.20
2012,04,17,03,44,12.90
2012,04,17,03,45,11.30
2012,04,17,03,46,11.30
2012,04,17,03,47,11.30
2012,04,17,03,48,16.10
2012,04,17,03,49,8.10
2012,04,17,03,50,8.10
2012,04,17,03,51,8.10
2012,04,17,03,52,16.10
2012,04,17,03,53,3.20
2012,04,17,03,54,3.20
2012,04,17,03,55,11.30
2012,04,17,03,56,11.30
2012,04,17,03,57,8.10
2012,04,17,03,58,4.80
2012,04,17,03,59,3.20
2012,04,17,04,00,6.40
2012,04,17,04,01,4.80
2012,04,17,04,02,3.20
2012,04,17,04,03,1.60
2012,04,17,04,04,3.20
2012,04,17,04,05,9.60
2012,04,17,04,06,6.40
2012,04,17,04,07,6.40
2012,04,17,04,08,4.80
2012,04,17,04,09,9.60
2012,04,17,04,10,6.40
2012,04,17,04,11,3.20
2012,04,17,04,12,11.30
2012,04,17,04,13,11.30
2012,04,17,04,14,1.60
2012,04,17,04,15,6.40
2012,04,17,04,16,8.10
2012,04,17,04,17,6.40
2012,04,17,04,18,11.30
2012,04,17,04,19,11.30
2012,04,17,04,20,6.40
2012,04,17,04,21,8.10
2012,04,17,04,22,9.60
2012,04,17,04,23,9.60
2012,04,17,04,24,8.10
2012,04,17,04,25,8.10
2012,04,17,04,26,14.50
2012,04,17,04,27,11.30
2012,04,17,04,28,12.90
2012,04,17,04,29,9.60
2012,04,17,04,30,8.10
2012,04,17,04,31,11.30
2012,04,17,04,32,14.50
2012,04,17,04,33,22.50
2012,04,17,04,34,14.50
2012,04,17,04,35,14.50
2012,04,17,04,36,19.30
2012,04,17,04,37,17.70
2012,04,17,04,38,16.10
2012,04,17,04,39,14.50
2012,04,17,04,40,19.30
2012,04,17,04,41,14.50
2012,04,17,04,42,16.10
2012,04,17,04,43,24.20
2012,04,17,04,44,17.70
2012,04,17,04,45,16.10
2012,04,17,04,46,16.10
2012,04,17,04,47,20.90
2012,04,17,04,48,17.70
2012,04,17,04,49,16.10
2012,04,17,04,50,11.30
2012,04,17,04,51,16.10
2012,04,17,04,52,19.30
2012,04,17,04,53,14.50
2012,04,17,04,54,16.10
2012,04,17,04,55,19.30
2012,04,17,04,56,11.30
2012,04,17,04,57,19.30
2012,04,17,04,58,11.30
2012,04,17,04,59,11.30
2012,04,17,05,00,14.50
2012,04,17,05,01,11.30
2012,04,17,05,02,16.10
2012,04,17,05,03,17.70
2012,04,17,05,04,14.50
2012,04,17,05,05,9.60
2012,04,17,05,06,11.30
2012,04,17,05,07,8.10
2012,04,17,05,08,11.30
2012,04,17,05,09,8.10
2012,04,17,05,10,6.40
2012,04,17,05,11,8.10
2012,04,17,05,12,6.40
2012,04,17,05,13,4.80
2012,04,17,05,14,8.10
2012,04,17,05,15,8.10
2012,04,17,05,16,8.10
2012,04,17,05,17,9.60
2012,04,17,05,18,6.40
2012,04,17,05,19,8.10
2012,04,17,05,20,9.60
2012,04,17,05,21,6.40
2012,04,17,05,22,6.40
2012,04,17,05,23,8.10
2012,04,17,05,24,8.10
2012,04,17,05,25,8.10
2012,04,17,05,26,6.40
2012,04,17,05,27,6.40
2012,04,17,05,28,8.10
2012,04,17,05,29,9.60
2012,04,17,05,30,9.60
2012,04,17,05,31,9.60
2012,04,17,05,32,8.10
2012,04,17,05,33,8.10
2012,04,17,05,34,11.30
2012,04,17,05,35,4.80
2012,04,17,05,36,6.40
2012,04,17,05,37,6.40
2012,04,17,05,38,1.60
2012,04,17,05,39,3.20
2012,04,17,05,40,6.40
2012,04,17,05,41,4.80
2012,04,17,05,42,4.80
2012,04,17,05,43,8.10
2012,04,17,05,44,11.30
2012,04,17,05,45,8.10
2012,04,17,05,46,8.10
2012,04,17,05,47,8.10
2012,04,17,05,48,6.40
2012,04,17,05,49,6.40
2012,04,17,05,50,6.40
2012,04,17,05,51,11.30
2012,04,17,05,52,8.10
2012,04,17,05,53,6.40
2012,04,17,05,54,6.40
2012,04,17,05,55,4.80
2012,04,17,05,56,4.80
2012,04,17,05,57,4.80
2012,04,17,05,58,3.20
2012,04,17,05,59,1.60
2012,04,17,06,06,1.60
2012,04,17,06,07,1.60
2012,04,17,06,08,1.60
2012,04,17,06,09,1.60
2012,04,17,06,10,1.60
2012,04,17,06,11,1.60
2012,04,17,06,12,3.20
2012,04,17,06,13,1.60
2012,04,17,06,14,1.60
2012,04,17,06,15,1.60
2012,04,17,06,16,3.20
2012,04,17,06,18,1.60
2012,04,17,06,19,1.60
2012,04,17,06,21,1.60
2012,04,17,06,22,3.20
2012,04,17,06,23,3.20
2012,04,17,06,24,3.20
2012,04,17,06,25,1.60
2012,04,17,06,26,6.40
2012,04,17,06,29,1.60
2012,04,17,06,33,1.60
2012,04,17,06,35,3.20
2012,04,17,06,43,3.20
2012,04,17,06,44,1.60
2012,04,17,06,45,1.60
2012,04,17,06,52,1.60
2012,04,17,06,57,1.60
2012,04,17,07,03,3.20
2012,04,17,07,04,3.20
2012,04,17,07,05,3.20
2012,04,17,07,06,1.60
2012,04,17,07,07,1.60
2012,04,17,07,10,1.60
2012,04,17,07,11,1.60
2012,04,17,07,12,1.60
2012,04,17,07,14,9.60
2012,04,17,07,15,9.60
2012,04,17,07,16,4.80
2012,04,17,07,17,1.60
2012,04,17,07,18,1.60
2012,04,17,07,22,1.60
2012,04,17,07,28,3.20
2012,04,17,07,29,3.20
2012,04,17,07,30,1.60
2012,04,17,07,33,1.60
2012,04,17,07,34,1.60
2012,04,17,07,35,4.80
2012,04,17,07,36,3.20
2012,04,17,07,37,1.60
2012,04,17,07,38,3.20
2012,04,17,07,42,4.80
2012,04,17,07,43,3.20
2012,04,17,07,46,3.20
2012,04,17,07,59,1.60
2012,04,17,08,00,1.60
2012,04,17,08,04,1.60
2012,04,17,08,12,1.60
2012,04,17,08,13,1.60
2012,04,17,08,25,1.60
2012,04,17,08,26,1.60
2012,04,17,08,27,3.20
2012,04,17,08,28,1.60
2012,04,17,08,29,1.60
2012,04,17,08,30,3.20
2012,04,17,08,31,4.80
2012,04,17,08,32,8.10
2012,04,17,08,33,6.40
2012,04,17,08,34,4.80
2012,04,17,08,35,1.60
2012,04,17,08,36,1.60
2012,04,17,08,37,1.60
2012,04,17,08,40,1.60
2012,04,17,08,41,3.20
2012,04,17,08,42,3.20
2012,04,17,08,43,1.60
2012,04,17,08,46,1.60
2012,04,17,08,47,1.60
2012,04,17,08,48,3.20
2012,04,17,08,49,1.60
2012,04,17,08,51,1.60
2012,04,17,08,52,4.80
2012,04,17,08,53,1.60
2012,04,17,08,55,1.60
2012,04,17,08,56,1.60
2012,04,17,08,59,3.20
2012,04,17,09,00,1.60
2012,04,17,09,01,3.20
2012,04,17,09,02,3.20
2012,04,17,09,03,4.80
2012,04,17,09,04,6.40
2012,04,17,09,05,6.40
2012,04,17,09,06,1.60
2012,04,17,09,08,1.60
2012,04,17,09,09,1.60
2012,04,17,09,10,1.60
2012,04,17,09,12,1.60
2012,04,17,09,13,1.60
2012,04,17,09,14,3.20
2012,04,17,09,15,1.60
2012,04,17,09,16,3.20
2012,04,17,09,17,1.60
2012,04,17,09,18,1.60
2012,04,17,09,19,1.60
2012,04,17,09,20,3.20
2012,04,17,09,21,1.60
2012,04,17,09,22,1.60
2012,04,17,09,23,1.60
2012,04,17,09,24,4.80
2012,04,17,09,25,1.60
2012,04,17,09,26,1.60
2012,04,17,09,27,1.60
2012,04,17,09,29,1.60
2012,04,17,09,30,1.60
2012,04,17,09,31,1.60
2012,04,17,09,32,1.60
2012,04,17,09,33,1.60
2012,04,17,09,34,1.60
2012,04,17,09,35,1.60
2012,04,17,09,40,1.60
2012,04,17,09,41,1.60
2012,04,17,09,42,1.60
2012,04,17,09,43,3.20
2012,04,17,09,44,1.60
2012,04,17,09,45,1.60
2012,04,17,09,46,4.80
2012,04,17,09,47,4.80
2012,04,17,09,48,1.60
2012,04,17,09,49,4.80
2012,04,17,09,50,3.20
2012,04,17,09,51,4.80
2012,04,17,09,52,6.40
2012,04,17,09,53,6.40
2012,04,17,09,54,6.40
2012,04,17,09,55,3.20
2012,04,17,09,56,4.80
2012,04,17,09,57,4.80
2012,04,17,09,58,3.20
2012,04,17,09,59,4.80
2012,04,17,10,00,4.80
2012,04,17,10,01,6.40
2012,04,17,10,02,6.40
2012,04,17,10,03,4.80
2012,04,17,10,04,4.80
2012,04,17,10,05,3.20
2012,04,17,10,06,3.20
2012,04,17,10,07,6.40
2012,04,17,10,08,4.80
2012,04,17,10,09,4.80
2012,04,17,10,10,3.20
2012,04,17,10,11,4.80
2012,04,17,10,12,3.20
2012,04,17,10,13,3.20
2012,04,17,10,14,3.20
2012,04,17,10,15,1.60
2012,04,17,10,17,1.60
2012,04,17,10,18,1.60
2012,04,17,10,19,1.60
2012,04,17,10,20,1.60
2012,04,17,10,21,1.60
2012,04,17,10,22,1.60
2012,04,17,10,23,3.20
2012,04,17,10,24,6.40
2012,04,17,10,25,4.80
2012,04,17,10,26,3.20
2012,04,17,10,27,6.40
2012,04,17,10,28,6.40
2012,04,17,10,29,4.80
2012,04,17,10,30,4.80
2012,04,17,10,31,4.80
2012,04,17,10,32,3.20
2012,04,17,10,33,3.20
2012,04,17,10,34,3.20
2012,04,17,10,35,1.60
2012,04,17,10,36,3.20
2012,04,17,10,37,3.20
2012,04,17,10,38,4.80
2012,04,17,10,39,3.20
2012,04,17,10,40,3.20
2012,04,17,10,41,3.20
2012,04,17,10,42,4.80
2012,04,17,10,43,6.40
2012,04,17,10,44,3.20
2012,04,17,10,45,6.40
2012,04,17,10,46,8.10
2012,04,17,10,47,8.10
2012,04,17,10,48,6.40
2012,04,17,10,49,6.40
2012,04,17,10,50,4.80
2012,04,17,10,51,4.80
2012,04,17,10,52,4.80
2012,04,17,10,53,4.80
2012,04,17,10,54,3.20
2012,04,17,10,55,4.80
2012,04,17,10,56,3.20
2012,04,17,10,57,1.60
2012,04,17,10,58,3.20
2012,04,17,10,59,3.20
2012,04,17,11,00,6.40
2012,04,17,11,01,3.20
2012,04,17,11,02,4.80
2012,04,17,11,03,6.40
2012,04,17,11,04,4.80
2012,04,17,11,05,3.20
2012,04,17,11,06,1.60
2012,04,17,11,07,4.80
2012,04,17,11,08,6.40
2012,04,17,11,09,4.80
2012,04,17,11,10,4.80
2012,04,17,11,11,4.80
2012,04,17,11,12,3.20
2012,04,17,11,13,8.10
2012,04,17,11,14,1.60
2012,04,17,11,15,4.80
2012,04,17,11,16,4.80
2012,04,17,11,17,4.80
2012,04,17,11,18,4.80
2012,04,17,11,19,3.20
2012,04,17,11,20,1.60
2012,04,17,11,21,3.20
2012,04,17,11,22,3.20
2012,04,17,11,23,3.20
2012,04,17,11,24,1.60
2012,04,17,11,25,4.80
2012,04,17,11,26,6.40
2012,04,17,11,27,6.40
2012,04,17,11,28,4.80
2012,04,17,11,29,1.60
2012,04,17,11,30,1.60
2012,04,17,11,31,4.80
2012,04,17,11,32,3.20
2012,04,17,11,33,3.20
2012,04,17,11,34,8.10
2012,04,17,11,35,4.80
2012,04,17,11,36,6.40
2012,04,17,11,37,6.40
2012,04,17,11,38,4.80
2012,04,17,11,39,4.80
2012,04,17,11,40,8.10
2012,04,17,11,41,8.10
2012,04,17,11,42,6.40
2012,04,17,11,43,6.40
2012,04,17,11,44,6.40
2012,04,17,11,45,6.40
2012,04,17,11,46,4.80
2012,04,17,11,47,6.40
2012,04,17,11,48,3.20
2012,04,17,11,49,1.60
2012,04,17,11,50,3.20
2012,04,17,11,51,1.60
2012,04,17,11,52,1.60
2012,04,17,11,53,4.80
2012,04,17,11,54,3.20
2012,04,17,11,55,1.60
2012,04,17,11,56,1.60
2012,04,17,11,57,4.80
2012,04,17,11,58,3.20
2012,04,17,11,59,3.20
2012,04,17,12,00,3.20
2012,04,17,12,01,3.20
2012,04,17,12,02,6.40
2012,04,17,12,03,6.40
2012,04,17,12,04,3.20
2012,04,17,12,05,3.20
2012,04,17,12,06,3.20
2012,04,17,12,07,3.20
2012,04,17,12,08,4.80
2012,04,17,12,09,4.80
2012,04,17,12,10,3.20
2012,04,17,12,11,3.20
2012,04,17,12,12,1.60
2012,04,17,12,13,1.60
2012,04,17,12,14,1.60
2012,04,17,12,15,4.80
2012,04,17,12,16,4.80
2012,04,17,12,17,1.60
2012,04,17,12,18,1.60
2012,04,17,12,19,3.20
2012,04,17,12,20,4.80
2012,04,17,12,21,3.20
2012,04,17,12,22,3.20
2012,04,17,12,23,4.80
2012,04,17,12,24,3.20
2012,04,17,12,25,3.20
2012,04,17,12,26,6.40
2012,04,17,12,27,4.80
2012,04,17,12,28,3.20
2012,04,17,12,29,4.80
2012,04,17,12,30,4.80
2012,04,17,12,31,4.80
2012,04,17,12,32,6.40
2012,04,17,12,33,4.80
2012,04,17,12,34,3.20
2012,04,17,12,35,1.60
2012,04,17,12,36,4.80
2012,04,17,12,37,4.80
2012,04,17,12,38,4.80
2012,04,17,12,39,1.60
2012,04,17,12,40,3.20
2012,04,17,12,41,1.60
2012,04,17,12,42,4.80
2012,04,17,12,43,4.80
2012,04,17,12,44,4.80
2012,04,17,12,45,3.20
2012,04,17,12,46,1.60
2012,04,17,12,47,1.60
2012,04,17,12,48,3.20
2012,04,17,12,49,3.20
2012,04,17,12,50,3.20
2012,04,17,12,51,1.60
2012,04,17,12,53,4.80
2012,04,17,12,55,1.60
2012,04,17,12,56,1.60
2012,04,17,12,57,4.80
2012,04,17,12,58,8.10
2012,04,17,12,59,6.40
2012,04,17,13,00,4.80
2012,04,17,13,01,4.80
2012,04,17,13,02,4.80
2012,04,17,13,03,3.20
2012,04,17,13,04,3.20
2012,04,17,13,05,1.60
2012,04,17,13,06,1.60
2012,04,17,13,09,1.60
2012,04,17,13,10,1.60
2012,04,17,13,12,3.20
2012,04,17,13,13,3.20
2012,04,17,13,14,3.20
2012,04,17,13,15,4.80
2012,04,17,13,16,1.60
2012,04,17,13,17,3.20
2012,04,17,13,18,1.60
2012,04,17,13,19,4.80
2012,04,17,13,20,4.80
2012,04,17,13,21,4.80
2012,04,17,13,22,4.80
2012,04,17,13,23,3.20
2012,04,17,13,24,4.80
2012,04,17,13,25,1.60
2012,04,17,13,26,3.20
2012,04,17,13,27,1.60
2012,04,17,13,28,1.60
2012,04,17,13,29,1.60
2012,04,17,13,32,1.60
2012,04,17,13,33,1.60
2012,04,17,13,34,1.60
2012,04,17,13,35,1.60
2012,04,17,13,37,1.60
2012,04,17,13,38,1.60
2012,04,17,13,39,1.60
2012,04,17,13,40,1.60
2012,04,17,13,41,3.20
2012,04,17,13,42,3.20
2012,04,17,13,43,4.80
2012,04,17,13,44,3.20
2012,04,17,13,45,4.80
2012,04,17,13,46,4.80
2012,04,17,13,47,8.10
2012,04,17,13,48,6.40
2012,04,17,13,49,8.10
2012,04,17,13,50,8.10
2012,04,17,13,51,4.80
2012,04,17,13,52,6.40
2012,04,17,13,53,4.80
2012,04,17,13,54,1.60
2012,04,17,13,55,1.60
2012,04,17,13,57,4.80
2012,04,17,13,59,1.60
2012,04,17,14,00,1.60
2012,04,17,14,01,1.60
2012,04,17,14,02,3.20
2012,04,17,14,03,4.80
2012,04,17,14,04,4.80
2012,04,17,14,05,1.60
2012,04,17,14,06,1.60
2012,04,17,14,07,3.20
2012,04,17,14,08,1.60
2012,04,17,14,09,1.60
2012,04,17,14,10,1.60
2012,04,17,14,11,1.60
2012,04,17,14,12,3.20
2012,04,17,14,13,6.40
2012,04,17,14,14,3.20
2012,04,17,14,15,4.80
2012,04,17,14,16,3.20
2012,04,17,14,17,1.60
2012,04,17,14,18,1.60
2012,04,17,14,19,1.60
2012,04,17,14,20,4.80
2012,04,17,14,21,4.80
2012,04,17,14,22,1.60
2012,04,17,14,23,1.60
2012,04,17,14,24,1.60
2012,04,17,14,25,1.60
2012,04,17,14,26,3.20
2012,04,17,14,29,3.20
2012,04,17,14,30,3.20
2012,04,17,14,31,4.80
2012,04,17,14,32,3.20
2012,04,17,14,33,4.80
2012,04,17,14,34,4.80
2012,04,17,14,35,3.20
2012,04,17,14,36,3.20
2012,04,17,14,37,1.60
2012,04,17,14,38,3.20
2012,04,17,14,39,3.20
2012,04,17,14,40,3.20
2012,04,17,14,41,3.20
2012,04,17,14,42,1.60
2012,04,17,14,43,6.40
2012,04,17,14,44,4.80
2012,04,17,14,45,1.60
2012,04,17,14,46,1.60
2012,04,17,14,47,1.60
2012,04,17,14,48,1.60
2012,04,17,14,49,8.10
2012,04,17,14,50,3.20
2012,04,17,14,51,3.20
2012,04,17,14,52,1.60
2012,04,17,14,53,1.60
2012,04,17,14,54,3.20
2012,04,17,14,55,4.80
2012,04,17,14,56,3.20
2012,04,17,14,57,6.40
2012,04,17,14,58,6.40
2012,04,17,14,59,8.10
2012,04,17,15,00,3.20
2012,04,17,15,01,3.20
2012,04,17,15,02,8.10
2012,04,17,15,03,8.10
2012,04,17,15,04,4.80
2012,04,17,15,05,6.40
2012,04,17,15,06,3.20
2012,04,17,15,07,1.60
2012,04,17,15,08,1.60
2012,04,17,15,09,1.60
2012,04,17,15,10,3.20
2012,04,17,15,11,3.20
2012,04,17,15,12,3.20
2012,04,17,15,13,6.40
2012,04,17,15,14,6.40
2012,04,17,15,15,4.80
2012,04,17,15,16,4.80
2012,04,17,15,17,3.20
2012,04,17,15,18,3.20
2012,04,17,15,19,4.80
2012,04,17,15,20,3.20
2012,04,17,15,21,3.20
2012,04,17,15,22,3.20
2012,04,17,15,23,3.20
2012,04,17,15,24,6.40
2012,04,17,15,25,4.80
2012,04,17,15,26,1.60
2012,04,17,15,27,1.60
2012,04,17,15,28,1.60
2012,04,17,15,29,1.60
2012,04,17,15,30,3.20
2012,04,17,15,32,1.60
2012,04,17,15,34,1.60
2012,04,17,15,35,1.60
2012,04,17,15,36,1.60
2012,04,17,15,37,1.60
2012,04,17,15,38,1.60
2012,04,17,15,39,3.20
2012,04,17,15,40,1.60
2012,04,17,15,41,1.60
2012,04,17,15,42,1.60
2012,04,17,15,44,1.60
2012,04,17,15,46,1.60
2012,04,17,16,04,1.60
2012,04,17,16,06,1.60
2012,04,17,16,08,1.60
2012,04,17,16,09,3.20
2012,04,17,16,10,1.60
2012,04,17,16,11,1.60
2012,04,17,16,13,1.60
2012,04,17,16,14,1.60
2012,04,17,16,15,1.60
2012,04,17,16,16,3.20
2012,04,17,16,17,1.60
2012,04,17,16,18,1.60
2012,04,17,16,20,1.60
2012,04,17,16,21,1.60
2012,04,17,16,22,1.60
2012,04,17,16,23,1.60
2012,04,17,16,24,3.20
2012,04,17,16,25,3.20
2012,04,17,16,26,1.60
2012,04,17,16,27,1.60
2012,04,17,16,28,1.60
2012,04,17,16,29,3.20
2012,04,17,16,30,4.80
2012,04,17,16,31,1.60
2012,04,17,16,32,1.60
2012,04,17,16,33,1.60
2012,04,17,16,34,3.20
2012,04,17,16,35,1.60
2012,04,17,16,37,1.60
2012,04,17,16,38,1.60
2012,04,17,16,39,1.60
2012,04,17,16,40,1.60
2012,04,17,16,41,1.60
2012,04,17,16,42,1.60
2012,04,17,16,43,3.20
2012,04,17,16,44,3.20
2012,04,17,16,45,1.60
2012,04,17,16,46,3.20
2012,04,17,16,47,1.60
2012,04,17,16,48,1.60
2012,04,17,16,49,1.60
2012,04,17,16,51,1.60
2012,04,17,16,53,1.60
2012,04,17,16,54,1.60
2012,04,17,16,55,1.60
2012,04,17,16,56,1.60
2012,04,17,16,57,1.60
2012,04,17,16,58,1.60
2012,04,17,16,59,1.60
2012,04,17,17,00,1.60
2012,04,17,17,01,1.60
2012,04,17,17,02,3.20
2012,04,17,17,03,1.60
2012,04,17,17,04,3.20
2012,04,17,17,05,1.60
2012,04,17,17,06,1.60
2012,04,17,17,07,1.60
2012,04,17,17,08,4.80
2012,04,17,17,09,1.60
2012,04,17,17,10,1.60
2012,04,17,17,11,1.60
2012,04,17,17,12,1.60
2012,04,17,17,13,1.60
2012,04,17,17,14,1.60
2012,04,17,17,15,3.20
2012,04,17,17,16,1.60
2012,04,17,17,18,1.60
2012,04,17,17,19,1.60
2012,04,17,17,21,1.60
2012,04,17,17,22,1.60
2012,04,17,17,24,1.60
2012,04,17,17,25,1.60
2012,04,17,17,26,1.60
2012,04,17,17,27,1.60
2012,04,17,17,28,1.60
2012,04,17,17,30,3.20
2012,04,17,17,31,3.20
2012,04,17,17,32,1.60
2012,04,17,17,33,1.60
2012,04,17,17,34,1.60
2012,04,17,17,35,1.60
2012,04,17,17,36,1.60
2012,04,17,17,37,3.20
2012,04,17,17,38,3.20
2012,04,17,17,39,4.80
2012,04,17,17,40,3.20
2012,04,17,17,41,3.20
2012,04,17,17,42,1.60
2012,04,17,17,43,1.60
2012,04,17,17,44,1.60
2012,04,17,17,45,1.60
2012,04,17,17,46,1.60
2012,04,17,17,47,6.40
2012,04,17,17,48,6.40
2012,04,17,17,49,6.40
2012,04,17,17,50,1.60
2012,04,17,17,51,3.20
2012,04,17,17,52,6.40
2012,04,17,17,53,6.40
2012,04,17,17,54,3.20
2012,04,17,17,55,9.60
2012,04,17,17,56,9.60
2012,04,17,17,57,4.80
2012,04,17,17,58,6.40
2012,04,17,17,59,4.80
2012,04,17,18,00,1.60
2012,04,17,18,01,4.80
2012,04,17,18,02,3.20
2012,04,17,18,03,3.20
2012,04,17,18,04,3.20
2012,04,17,18,05,3.20
2012,04,17,18,06,3.20
2012,04,17,18,07,1.60
2012,04,17,18,08,3.20
2012,04,17,18,09,1.60
2012,04,17,18,10,1.60
2012,04,17,18,11,1.60
2012,04,17,18,12,1.60
2012,04,17,18,13,1.60
2012,04,17,18,14,1.60
2012,04,17,18,15,1.60
2012,04,17,18,17,1.60
2012,04,17,18,18,1.60
2012,04,17,18,19,3.20
2012,04,17,18,21,1.60
2012,04,17,18,22,1.60
2012,04,17,18,23,1.60
2012,04,17,18,24,1.60
2012,04,17,18,25,3.20
2012,04,17,18,26,1.60
2012,04,17,18,27,3.20
2012,04,17,18,28,3.20
2012,04,17,18,29,3.20
2012,04,17,18,30,1.60
2012,04,17,18,31,1.60
2012,04,17,18,32,3.20
2012,04,17,18,33,3.20
2012,04,17,18,34,1.60
2012,04,17,18,35,3.20
2012,04,17,18,36,3.20
2012,04,17,18,37,1.60
2012,04,17,18,38,3.20
2012,04,17,18,39,3.20
2012,04,17,18,40,3.20
2012,04,17,18,41,3.20
2012,04,17,18,42,3.20
2012,04,17,18,43,1.60
2012,04,17,18,44,3.20
2012,04,17,18,45,3.20
2012,04,17,18,46,3.20
2012,04,17,18,47,4.80
2012,04,17,18,48,4.80
2012,04,17,18,49,4.80
2012,04,17,18,50,3.20
2012,04,17,18,51,1.60
2012,04,17,18,52,1.60
2012,04,17,18,53,1.60
2012,04,17,18,54,1.60
2012,04,17,18,55,3.20
2012,04,17,18,56,3.20
2012,04,17,18,57,3.20
2012,04,17,18,58,3.20
2012,04,17,18,59,3.20
2012,04,17,19,00,1.60
2012,04,17,19,01,3.20
2012,04,17,19,02,1.60
2012,04,17,19,04,1.60
2012,04,17,19,05,1.60
2012,04,17,19,06,1.60
2012,04,17,19,07,1.60
2012,04,17,19,08,1.60
2012,04,17,19,09,1.60
2012,04,17,19,10,1.60
2012,04,17,19,11,3.20
2012,04,17,19,12,1.60
2012,04,17,19,13,1.60
2012,04,17,19,14,1.60
2012,04,17,19,15,1.60
2012,04,17,19,16,3.20
2012,04,17,19,17,1.60
2012,04,17,19,18,1.60
2012,04,17,19,20,1.60
2012,04,17,19,21,1.60
2012,04,17,19,22,1.60
2012,04,17,19,23,1.60
2012,04,17,19,26,1.60
2012,04,17,19,28,1.60
2012,04,17,19,29,1.60
2012,04,17,19,30,1.60
2012,04,17,19,31,1.60
2012,04,17,19,32,4.80
2012,04,17,19,33,1.60
2012,04,17,19,34,1.60
2012,04,17,19,35,9.60
2012,04,17,19,36,8.10
2012,04,17,19,37,6.40
2012,04,17,19,38,1.60
2012,04,17,19,39,1.60
2012,04,17,19,40,1.60
2012,04,17,19,41,1.60
2012,04,17,19,42,1.60
2012,04,17,19,43,3.20
2012,04,17,19,44,4.80
2012,04,17,19,45,4.80
2012,04,17,19,46,4.80
2012,04,17,19,47,4.80
2012,04,17,19,48,6.40
2012,04,17,19,49,4.80
2012,04,17,19,50,4.80
2012,04,17,19,51,4.80
2012,04,17,19,52,3.20
2012,04,17,19,53,1.60
2012,04,17,19,54,1.60
2012,04,17,19,56,1.60
2012,04,17,19,57,1.60
2012,04,17,19,58,1.60
2012,04,17,20,01,1.60
2012,04,17,20,02,1.60
2012,04,17,20,36,1.60
2012,04,17,20,37,1.60
2012,04,17,20,39,1.60
2012,04,17,20,40,1.60
2012,04,17,20,41,1.60
2012,04,17,20,42,1.60
2012,04,17,20,43,1.60
2012,04,17,20,44,1.60
2012,04,17,20,45,1.60
2012,04,17,20,46,1.60
2012,04,17,20,47,1.60
2012,04,17,20,48,1.60
2012,04,17,20,49,1.60
2012,04,17,20,50,1.60
2012,04,17,20,52,1.60
2012,04,17,20,53,1.60
2012,04,17,20,54,1.60
2012,04,17,20,55,1.60
2012,04,17,20,56,1.60
2012,04,17,20,57,1.60
2012,04,17,20,58,1.60
2012,04,17,20,59,1.60
2012,04,17,21,00,1.60
2012,04,17,21,01,1.60
2012,04,17,21,02,1.60
2012,04,17,21,05,1.60
2012,04,17,21,08,1.60
2012,04,17,21,09,1.60
2012,04,17,21,30,1.60
2012,04,17,21,33,1.60
2012,04,17,22,19,1.60
2012,04,17,22,22,1.60
2012,04,17,22,25,1.60
2012,04,17,22,28,1.60
2012,04,17,22,29,1.60